Location: Balcones
(3.7244°N, 75.6017°W)
Time: 00:29:49
(UTC+00:00)

Cosmos 2227 Rocket - Pass Details

Date: 13 December 2025
Orbit: 838 x 844 km, 71.0° (Epoch: 20 January)

Event Time Altitude Azimuth Distance (km) Brightness Sun altitude
Rises 23:22:41 0° 349° (N) 3,381 5.2 -7.4°
Reaches altitude 10° 23:25:08 10° 352° (N) 2,449 4.5 -7.9°
Maximum altitude 23:30:43 68° 75° (ENE) 905 2.2 -9.2°
Drops below altitude 10° 23:36:19 10° 157° (SSE) 2,459 4.6 -10.5°
Sets 23:38:47 0° 159° (SSE) 3,395 5.4 -11.1°
